Lid_Strength_Index
6 7 8 8 8 8 9 9 9 8 7 8 9 8 8 6 6 6 5 5 6 5 4 3 3 3 3 2 1 1 1 1 1 2 3 3 3 3 3 1 1 0 -0 0
6 8 7 8 8 8 8 8 9 8 7 7 8 9 7 7 7 6 6 6 5 5 4 4 3 3 2 1 1 1 1 2 3 3 2 1 2 2 2 1 1 0 1 1
7 7 7 7 8 8 8 9 9 9 8 7 8 9 9 7 6 6 5 5 5 5 5 4 4 4 2 2 2 2 1 1 2 1 1 2 1 1 1 1 1 0 0 0
7 6 7 7 8 8 9 8 8 9 9 11 8 12 9 8 8 7 7 6 5 5 4 4 3 3 3 2 2 2 1 2 2 1 1 2 3 3 2 1 1 1 0 1
8 7 7 8 8 8 8 7 8 8 9 10 10 11 9 8 9 9 8 7 6 5 4 4 3 3 2 2 2 2 1 1 1 2 2 2 1 2 2 2 1 0 0 1
7 6 6 7 7 7 7 8 8 8 9 12 11 11 10 9 9 9 8 7 6 5 5 5 5 6 6 5 5 4 4 5 4 3 3 3 3 2 2 2 2 2 2 1
8 7 6 6 7 7 7 8 12 12 13 14 11 12 11 9 8 7 8 7 7 6 7 7 8 7 6 5 5 5 4 5 4 3 3 3 2 2 2 2 3 2 2 2
11 11 8 6 7 8 8 9 12 16 15 13 11 13 11 8 7 7 7 8 8 9 8 8 7 6 6 6 6 5 6 5 5 4 3 3 3 3 2 2 2 3 2 2
10 11 7 6 6 7 9 10 9 12 12 14 11 11 8 8 8 7 8 8 8 8 8 8 7 6 6 6 6 6 5 5 4 4 4 3 3 2 2 2 2 2 1 2
9 11 8 7 6 6 8 7 12 11 17 17 13 13 12 11 10 8 7 8 8 8 7 7 6 6 6 7 6 5 5 5 5 4 4 4 2 2 2 2 2 1 1 1
7 9 9 8 9 10 9 10 10 11 12 16 17 13 9 9 8 8 8 8 8 7 7 6 6 6 7 6 6 5 6 5 5 5 4 2 2 2 2 1 2 2 1 1
8 9 11 10 8 7 8 10 10 12 14 13 14 14 8 7 7 7 8 8 7 6 6 7 7 6 7 6 6 6 6 6 5 4 3 2 2 1 2 2 2 1 1 1
7 10 13 12 9 7 9 9 9 10 11 13 15 12 7 8 8 7 8 8 7 6 8 8 7 7 8 7 6 6 6 5 4 3 3 2 2 2 2 1 1 0 1 0
6 9 11 14 12 9 11 10 9 10 13 13 12 12 9 9 8 8 8 7 7 8 7 7 7 6 6 6 6 5 4 3 3 2 2 2 2 2 1 0 1 1 0 0
7 11 10 9 9 10 10 11 10 11 11 14 12 12 10 8 8 7 7 7 8 8 8 7 7 7 6 6 5 4 3 2 3 3 3 2 1 0 0 1 1 0 0 0
8 10 10 11 10 10 11 10 10 10 10 10 10 11 7 7 7 7 7 7 7 7 7 7 7 6 6 5 4 3 3 3 2 2 2 1 1 0 1 2 2 1 1 0
9 10 12 13 11 11 13 11 10 10 9 10 12 10 7 7 7 7 6 6 7 7 7 7 6 5 4 4 4 3 3 2 2 2 1 1 0 1 2 2 2 1 1 1
9 10 10 13 12 17 11 7 8 10 9 8 8 8 7 7 6 5 5 6 6 6 6 5 5 4 4 3 3 3 3 3 3 3 2 1 1 2 2 2 2 2 2 2
7 9 13 15 15 13 11 10 10 11 11 8 8 7 6 6 6 6 6 6 6 6 5 4 4 4 3 3 2 2 2 2 2 3 3 3 2 2 2 2 2 2 3 3
8 8 11 13 17 19 12 8 6 7 13 7 7 7 7 6 9 7 5 5 5 4 5 5 4 3 3 2 1 1 2 2 3 3 3 2 2 3 3 3 4 4 3 4
12 11 14 15 16 13 8 7 6 14 12 7 6 6 6 7 7 6 5 5 4 5 5 4 4 4 2 1 1 1 2 3 2 2 2 3 3 5 6 5 5 4 5 5
12 13 13 13 15 16 7 7 11 8 6 5 5 6 6 6 6 6 6 5 6 5 5 4 5 3 1 1 2 3 3 2 2 1 3 3 4 4 4 5 5 6 7 7
12 10 11 11 11 7 6 6 5 5 5 5 6 6 6 7 8 8 6 6 5 5 5 4 4 3 2 2 2 3 2 2 2 3 4 4 4 5 5 6 6 7 7 8
8 7 9 10 8 7 6 5 5 4 5 5 6 6 6 8 7 6 7 5 5 5 5 4 4 3 3 3 3 2 2 2 3 3 4 5 6 5 5 6 7 7 7 8
7 7 9 9 7 6 6 5 5 5 6 6 6 6 7 7 6 6 5 5 5 5 4 5 5 5 4 3 3 4 4 4 5 6 6 6 6 6 6 7 7 7 7 8
6 8 9 9 6 6 6 5 5 6 6 6 6 6 6 6 6 6 5 4 4 5 5 5 5 5 4 4 5 4 5 6 6 6 6 6 7 7 7 6 6 8 9 9